Flag for Puerto Rico Weather past 2 weeks in Ponce, Puerto Rico

Now
82 °F

Clear.


Feels Like: 87 °F
Forecast: 79 / 92 °F
Wind: 9 mph from East

Location: Ponce / Mercedita

Current Time: Jul 26, 2014 at 3:32:58 AM

Latest Report: Jul 26, 2014 at 2:50 AM


Visibility: 8 mi

Pressure: 29.97 "Hg

Humidity: 70%

Dew point: 72 °F

Location of PonceLocation

Historic Weather in Ponce — Graph

°F

Ponce temperature yesterday

Maximum temperature yesterday: 93 °F (at 12:50 PM)
Minimum temperature yesterday: 79 °F (at 4:50 AM)
Average temperature yesterday: 86 °F

Past Weeks' High & Low Weather Summary

 TemperatureHumidityPressure
High93 °F (Jul 25, 12:50 PM)89% (Jul 21, 4:50 PM)30.07 "Hg (Jul 21, 4:50 PM)
Low73 °F (Jul 14, 4:50 AM)44% (Jul 25, 1:50 PM)29.93 "Hg (Jul 23, 6:50 PM)
Average83 °F72%30.01 "Hg
* Reported Jul 11 1:50 AM — Jul 26 1:50 AM, Ponce, Weather by CustomWeather, © 2014

Note: Actual official high and low records may vary slightly from our data, if they occured in-between our weather recording intervals... More about our weather records

Advertising

Ponce weather history for previous 24 hours

 ConditionsComfort  
Time TempWeatherWind HumidityBarometerVisibility
1:50 AM
Jul 26
82 °FPassing clouds.9 mph70%29.99 "Hg8 mi
12:50 AM82 °FPassing clouds.6 mph70%30.00 "Hg8 mi
10:50 PM
Jul 25
82 °FPassing clouds.7 mph70%30.01 "Hg8 mi
9:50 PM84 °FPassing clouds.6 mph66%30.00 "Hg10 mi
8:50 PM84 °FPassing clouds.12 mph70%30.00 "Hg10 mi
6:50 PM86 °FPassing clouds.12 mph75%29.96 "Hg10 mi
5:50 PM88 °FPassing clouds.12 mph66%29.94 "Hg10 mi
3:50 PM91 °FPassing clouds.23 mph59%29.95 "Hg10 mi
1:50 PM93 °FPassing clouds.23 mph44%30.00 "Hg10 mi
12:50 PM93 °FPassing clouds.23 mph56%30.00 "Hg10 mi
11:50 AM91 °FPassing clouds.12 mph59%30.01 "Hg10 mi
10:50 AM91 °FPassing clouds.9 mph59%30.01 "Hg10 mi
8:50 AM88 °FPassing clouds.9 mph59%30.03 "Hg10 mi
7:50 AM82 °FPassing clouds.9 mph70%30.03 "Hg10 mi
6:50 AM82 °FPassing clouds.9 mph70%30.01 "Hg10 mi
5:50 AM79 °FPassing clouds.9 mph79%29.98 "Hg8 mi
4:50 AM79 °FPassing clouds.6 mph79%29.98 "Hg8 mi
3:50 AM82 °FPassing clouds.9 mph70%29.98 "Hg8 mi
Weather by CustomWeather, © 2014

See weather overviewHow to use our weather pages